CW7701 Weather Reports


time (UTC)temp
C
wind
direction
speed
KPH
gust
KPH
rain 1hr
cm
rain 24hr
cm
rain mn
cm
humidity
%
barometer
mb
20260903073004 25 300 3.2 8.0 0.00 1.35 0.00 88 1012.3
20260903071502 25 300 1.6 8.0 0.00 1.35 0.00 88 1012.2
20260903070112 25 300 3.2 6.4 0.00 1.35 0.00 89 1012.2
20260903064557 25 299 3.2 6.4 0.00 1.35 1.35 89 1012.3
20260903063107 25 298 3.2 8.0 0.00 1.35 1.35 89 1012.2
20260903061606 25 295 1.6 11.3 0.00 1.35 1.35 89 1012.0
20260903060055 26 291 3.2 11.3 0.00 1.35 1.35 89 1012.0
20260903054602 25 288 1.6 6.4 0.00 1.35 1.35 89 1012.1
20260903053056 25 288 3.2 8.0 0.00 1.35 1.35 89 1012.2
20260903051555 25 286 1.6 8.0 0.00 1.35 1.35 89 1012.5
20260903050053 25 279 1.6 6.4 0.00 1.35 1.35 90 1012.5
20260903044556 26 276 1.6 9.7 0.00 1.35 1.35 90 1012.6
20260903043051 26 273 1.6 9.7 0.00 1.35 1.35 90 1012.4
20260903041607 26 273 3.2 9.7 0.03 1.35 1.35 90 1012.4
20260903040051 26 268 3.2 11.3 0.03 1.35 1.35 90 1012.3
20260903034550 26 259 3.2 6.4 0.03 1.35 1.35 90 1012.2
20260903033121 26 257 3.2 9.7 0.03 1.35 1.35 90 1012.0
20260903031620 26 254 1.6 8.0 0.00 1.32 1.32 90 1011.9
20260903030048 26 251 3.2 8.0 0.00 1.32 1.32 90 1011.7
20260903024548 26 213 1.6 6.4 0.00 1.32 1.32 90 1011.5
20260903023047 26 193 1.6 8.0 0.00 1.32 1.32 90 1011.3
20260903021547 26 193 1.6 6.4 0.00 1.32 1.32 89 1011.0
20260903020052 26 193 0.0 3.2 0.03 1.32 1.32 89 1010.9
20260903014606 26 193 0.0 3.2 0.03 1.32 1.32 89 1010.9
20260903013059 26 193 1.6 3.2 0.03 1.32 1.32 88 1010.6
20260903011611 26 193 1.6 4.8 0.03 1.32 1.32 87 1010.4
20260903010059 26 193 1.6 4.8 0.00 1.30 1.30 87 1010.5
20260903004541 26 193 1.6 4.8 0.00 1.30 1.30 87 1010.8
20260903003038 26 193 1.6 4.8 0.00 1.30 1.30 87 1011.2
20260903001546 26 193 1.6 4.8 0.00 1.30 1.30 87 1011.5
20260903000035 26 197 3.2 6.4 0.00 1.30 1.30 88 1011.9
20260902234634 26 197 3.2 6.4 0.00 1.30 1.30 89 1012.1
20260902233036 26 198 1.6 4.8 0.03 1.30 1.30 89 1011.6
20260902231544 26 198 4.8 11.3 0.03 1.30 1.30 89 1011.8
20260902230036 26 196 1.6 6.4 0.33 1.30 1.30 90 1012.4
20260902224531 26 196 3.2 6.4 0.97 1.30 1.30 88 1012.3
20260902223039 26 196 4.8 9.7 0.94 1.27 1.27 88 1012.2
20260902221532 26 210 8.0 16.1 0.94 1.27 1.27 86 1011.8
20260902220034 27 182 17.7 33.8 0.56 0.86 0.86 79 1012.4
20260902214530 28 159 8.0 24.1 0.33 0.33 0.33 78 1011.7
20260902213026 27 238 12.9 20.9 0.33 0.33 0.33 86 1011.9
20260902211529 26 230 14.5 29.0 0.33 0.33 0.33 85 1011.8
20260902210022 28 231 14.5 25.7 0.30 0.30 0.30 77 1012.4
20260902204520 28 148 9.7 25.7 0.00 0.00 0.00 71 1013.1
20260902203019 30 204 14.5 35.4 0.00 0.00 0.00 70 1013.0
20260902201518 32 203 22.5 37.0 0.00 0.00 0.00 62 1013.1
20260902200019 35 156 12.9 22.5 0.00 0.00 0.00 56 1012.1
20260902194533 36 125 6.4 24.1 0.00 0.00 0.00 52 1012.1
20260902193010 36 135 9.7 22.5 0.00 0.00 0.00 51 1011.8
20260902191507 36 153 8.0 16.1 0.00 0.00 0.00 51 1011.9
20260902184600 35 175 4.8 20.9 0.00 0.00 0.00 56 1012.4
20260902183059 35 109 8.0 19.3 0.00 0.00 0.00 54 1012.6
20260902181558 35 154 6.4 20.9 0.00 0.00 0.00 55 1012.8
20260902180058 35 123 6.4 17.7 0.00 0.00 0.00 59 1012.8
20260902174556 35 108 8.0 20.9 0.00 0.00 0.00 58 1012.7
20260902173056 34 91 9.7 17.7 0.00 0.00 0.00 58 1012.5
20260902171557 35 94 9.7 19.3 0.00 0.00 0.00 55 1012.3
20260902170053 35 107 6.4 16.1 0.00 0.00 0.00 56 1012.5
20260902164553 34 355 3.2 9.7 0.00 0.00 0.00 61 1012.4
20260902163046 33 349 3.2 9.7 0.00 0.00 0.00 63 1012.7
20260902161542 32 346 3.2 8.0 0.00 0.00 0.00 65 1012.7
20260902160036 31 346 1.6 6.4 0.00 0.00 0.00 68 1012.8
20260902154535 31 346 1.6 8.0 0.00 0.00 0.00 66 1012.9
20260902153031 31 346 3.2 6.4 0.00 0.00 0.00 67 1012.9
20260902151529 30 345 4.8 9.7 0.00 0.00 0.00 70 1012.8
20260902150024 28 338 3.2 8.0 0.00 0.00 0.00 73 1012.7
20260902144523 27 330 3.2 8.0 0.00 0.00 0.00 75 1012.8
20260902143022 27 327 1.6 9.7 0.00 0.00 0.00 78 1012.8
20260902141524 26 319 3.2 8.0 0.00 0.00 0.00 78 1012.7
20260902140021 26 317 1.6 9.7 0.00 0.00 0.00 79 1012.6
20260902134531 25 339 3.2 9.7 0.00 0.03 0.00 80 1012.5
20260902133020 25 342 3.2 12.9 0.00 0.03 0.00 81 1012.4
20260902131518 25 337 3.2 12.9 0.00 0.03 0.00 80 1012.2
20260902130017 25 327 3.2 9.7 0.00 0.03 0.00 79 1011.9
20260902124517 26 327 3.2 8.0 0.00 0.03 0.00 79 1011.7
20260902123020 26 327 3.2 9.7 0.00 0.03 0.00 79 1011.8
20260902121514 26 327 1.6 6.4 0.00 0.03 0.00 80 1011.9
20260902120012 26 325 3.2 8.0 0.00 0.03 0.00 81 1011.7
20260902114514 26 325 1.6 9.7 0.00 0.03 0.00 82 1011.7
20260902113009 26 324 1.6 6.4 0.00 0.03 0.00 82 1011.8
20260902111506 26 324 3.2 6.4 0.00 0.03 0.00 82 1012.0
20260902110008 26 324 1.6 8.0 0.00 0.03 0.00 81 1011.9
20260902104622 27 322 1.6 8.0 0.00 0.03 0.00 81 1011.9
20260902103059 27 321 1.6 6.4 0.00 0.03 0.00 80 1012.0
20260902101557 27 321 1.6 6.4 0.00 0.03 0.00 80 1012.1
20260902100110 27 321 1.6 6.4 0.00 0.03 0.00 80 1012.3
20260902094551 27 321 3.2 8.0 0.00 0.03 0.00 82 1012.4
20260902093055 27 206 1.6 4.8 0.00 0.03 0.00 82 1012.5
20260902091546 28 202 1.6 4.8 0.00 0.03 0.00 81 1012.6
20260902090043 28 202 1.6 4.8 0.00 0.03 0.00 80 1012.7
20260902084541 28 202 1.6 4.8 0.00 0.03 0.00 79 1012.7
20260902083046 28 202 1.6 6.4 0.00 0.03 0.00 79 1012.8
20260902081558 28 201 1.6 6.4 0.00 0.03 0.00 79 1013.0
20260902080039 28 201 3.2 6.4 0.00 0.03 0.00 79 1013.2
20260902074533 29 201 1.6 6.4 0.00 0.03 0.00 78 1013.2